Location: Austin
(30.3000°N, 97.7500°W)
Time: 10:37:00
(UTC-05:00)

SPOT 1/Viking Rocket - Pass Details

Date: 26 May 2023
Orbit: 775 x 794 km, 98.3° (Epoch: 30 May)

Event Time Altitude Azimuth Distance (km) Brightness Sun altitude
Exits shadow 21:28:14 15° 147° (SSE) 1,997 5.1 -12.7°
Maximum altitude 21:32:20 53° 74° (ENE) 958 3.8 -13.4°
Drops below altitude 10° 21:37:20 10° 359° (N) 2,335 6.5 -14.3°
Sets 21:39:41 0° 355° (N) 3,263 7.4 -14.7°
